Weather History for Phuket, Thailand

Change the Weather History Date:

Tuesday, September 10, 2013

  Actual Average Record
Temperature  
Mean Temperature 78 °F -  
Max Temperature 84 °F 87 °F 96 °F (1997)
Min Temperature 71 °F 76 °F 71 °F (2013)
Cooling Degree Days 12    
Growing Degree Days 28 (Base 50)    
Moisture  
Dew Point 73 °F    
Average Humidity 85    
Maximum Humidity 94    
Minimum Humidity 70    
Precipitation  
Precipitation 1.06 in 0.52 in - ()
Sea Level Pressure  
Sea Level Pressure 29.81 in    
Wind  
Wind Speed 7 mph ()    
Max Wind Speed 23 mph    
Max Gust Speed 26 mph    
Visibility 3.9 miles    
Events Rain    
Averages and records for this station are not official NWS values.
T = Trace of Precipitation, MM = Missing Value Source: Averaged Metar Reports

Daily Weather History Graph

Daily Weather History Graph

Search for Another Location

Airport:

Trip Planner

Search our weather history database for the weather conditions in past years. The results will help you decide how hot, cold, wet, or windy it might be!

Date:

Astronomy

Sep. 10, 2013 Rise Set
Actual Time 6:17 AM ICT 6:29 PM ICT
Civil Twilight 5:56 AM ICT 6:50 PM ICT
Nautical Twilight 5:32 AM ICT 7:15 PM ICT
Astronomical Twilight 5:07 AM ICT 7:39 PM ICT
Moon 10:07 AM ICT (9/10) 10:13 PM ICT (9/10)
Length of Visible Light 12h 54m
Length of Day
12h 12m
Waxing Crescent, 23% of the Moon is Illuminated
Sep 10
Waxing Crescent
Sep 13
First Quarter
Sep 19
Full
Sep 27
Last Quarter
Oct 5
New

Hourly Weather History & Observations

Time (ICT) Temp. Heat Index Dew Point Humidity Pressure Visibility Wind Dir Wind Speed Gust Speed Precip Events Conditions
12:00 AM 75.2 °F - 73.4 °F 94% 29.89 in 5.0 mi Calm Calm - N/A   Mostly Cloudy
12:30 AM 78.8 °F - 73.4 °F 83% 29.89 in 5.0 mi WNW 11.5 mph - N/A   Mostly Cloudy
1:00 AM 77 °F - 73 °F 85% 29.83 in 5 mi Calm Calm - -   Mist
1:00 AM 75.2 °F - 69.8 °F 83% 29.86 in 5.0 mi NNW 9.2 mph - N/A   Mostly Cloudy
1:30 AM 75.2 °F - 69.8 °F 83% 29.86 in 5.0 mi NNW 6.9 mph - N/A   Mostly Cloudy
2:00 AM 75.2 °F - 69.8 °F 83% 29.83 in 4.3 mi NNW 10.4 mph - N/A   Mostly Cloudy
2:30 AM 75.2 °F - 69.8 °F 83% 29.83 in 4.3 mi WNW 8.1 mph - N/A   Mostly Cloudy
3:00 AM 77.0 °F - 71.6 °F 83% 29.83 in 4.3 mi NW 8.1 mph - N/A   Mostly Cloudy
3:30 AM 77.0 °F - 71.6 °F 83% 29.83 in 0.9 mi NW 8.1 mph - N/A Rain Heavy Rain
4:00 AM 75.2 °F - 71.6 °F 89% 29.83 in 4.3 mi West 10.4 mph - N/A Rain Light Rain
4:30 AM 75.2 °F - 71.6 °F 89% 29.80 in 1.9 mi West 12.7 mph - N/A Rain Rain
5:00 AM 75.2 °F - 71.6 °F 89% 29.80 in 4.3 mi West 3.5 mph - N/A   Mostly Cloudy
5:30 AM 73.4 °F - 71.6 °F 94% 29.80 in 4.3 mi Calm Calm - N/A   Mostly Cloudy
6:00 AM 75.2 °F - 71.6 °F 89% 29.80 in 4.3 mi Variable 2.3 mph - N/A   Mostly Cloudy
6:30 AM 73.4 °F - 71.6 °F 94% 29.83 in 5.0 mi Calm Calm - N/A   Mostly Cloudy
7:00 AM 75 °F - 73 °F 93% 29.79 in 6 mi Calm Calm - -   Mist
7:00 AM 77.0 °F - 71.6 °F 83% 29.83 in 5.0 mi NNW 5.8 mph - N/A   Mostly Cloudy
7:30 AM 77.0 °F - 71.6 °F 83% 29.83 in 0.9 mi West 6.9 mph - N/A Rain Heavy Rain
8:00 AM 75.2 °F - 71.6 °F 89% 29.86 in 1.9 mi Variable 3.5 mph - N/A Rain Rain
8:30 AM 77.0 °F - 73.4 °F 89% 29.86 in 4.3 mi West 5.8 mph - N/A   Mostly Cloudy
9:00 AM 78.8 °F - 73.4 °F 83% 29.86 in 4.3 mi Variable 3.5 mph - N/A   Mostly Cloudy
9:30 AM 80.6 °F 86.2 °F 75.2 °F 84% 29.86 in 5.6 mi WNW 4.6 mph - N/A   Mostly Cloudy
10:00 AM 80.6 °F 85.4 °F 73.4 °F 79% 29.86 in 6.2 mi WNW 10.4 mph - N/A   Mostly Cloudy
10:30 AM 82.4 °F 88.2 °F 73.4 °F 74% 29.83 in 6.2 mi West 9.2 mph - N/A   Mostly Cloudy
11:00 AM 84.2 °F 90.9 °F 73.4 °F 70% 29.83 in 5.6 mi West 9.2 mph - N/A   Mostly Cloudy
11:30 AM 84.2 °F 90.9 °F 73.4 °F 70% 29.83 in 1.9 mi West 11.5 mph - N/A Rain Rain
12:00 PM 75.2 °F - 71.6 °F 89% 29.86 in 0.6 mi WNW 12.7 mph - N/A Rain Rain
12:30 PM 75.2 °F - 71.6 °F 89% 29.83 in 3.7 mi WNW 5.8 mph - N/A Rain Light Rain
1:00 PM 75.2 °F - 71.6 °F 89% 29.83 in 1.2 mi WNW 20.7 mph - N/A Rain Heavy Rain
1:30 PM 77.0 °F - 71.6 °F 83% 29.80 in 3.1 mi West 16.1 mph - N/A Rain Light Rain
2:00 PM 77.0 °F - 73.4 °F 89% 29.77 in 3.7 mi WNW 12.7 mph - N/A Rain Light Rain
2:30 PM 78.8 °F - 73.4 °F 83% 29.77 in 4.3 mi WNW 10.4 mph - N/A   Mostly Cloudy
3:00 PM 78.8 °F - 73.4 °F 83% 29.77 in 4.3 mi NW 9.2 mph - N/A Rain Light Rain
3:30 PM 80.6 °F 86.2 °F 75.2 °F 84% 29.74 in 4.3 mi WNW 11.5 mph - N/A   Mostly Cloudy
4:00 PM 80.6 °F 85.4 °F 73.4 °F 79% 29.74 in 5.6 mi WNW 11.5 mph - N/A   Mostly Cloudy
4:30 PM 80.6 °F 85.4 °F 73.4 °F 79% 29.74 in 5.6 mi WNW 10.4 mph - N/A   Mostly Cloudy
5:00 PM 80.6 °F 84.6 °F 71.6 °F 74% 29.74 in 5.0 mi West 15.0 mph 26.5 mph N/A   Mostly Cloudy
5:30 PM 80.6 °F 85.4 °F 73.4 °F 79% 29.74 in 4.3 mi WNW 11.5 mph - N/A   Mostly Cloudy
6:00 PM 78.8 °F - 73.4 °F 83% 29.77 in 3.1 mi West 11.5 mph - N/A Rain Light Rain
6:30 PM 77.0 °F - 73.4 °F 89% 29.77 in 4.3 mi WNW 10.4 mph - N/A   Mostly Cloudy
7:00 PM 79 °F - 76 °F 88% 29.74 in 2 mi WNW 13.8 mph - - Rain Light Rain
7:00 PM 75.2 °F - 71.6 °F 89% 29.77 in 3.1 mi West 15.0 mph - N/A Rain Light Rain
7:30 PM 77.0 °F - 73.4 °F 89% 29.77 in 4.3 mi Calm Calm - N/A   Mostly Cloudy
8:00 PM 77.0 °F - 73.4 °F 89% 29.80 in 3.1 mi SSW 4.6 mph - N/A Rain Light Rain
8:30 PM 77.0 °F - 73.4 °F 89% 29.80 in 3.1 mi SW 3.5 mph - N/A Rain Light Rain
9:00 PM 77.0 °F - 73.4 °F 89% 29.80 in 4.3 mi SSW 3.5 mph - N/A Rain Light Rain
9:30 PM 77.0 °F - 73.4 °F 89% 29.83 in 4.3 mi South 3.5 mph - N/A Rain Light Rain
10:00 PM 77.0 °F - 73.4 °F 89% 29.83 in 5.0 mi Calm Calm - N/A   Mostly Cloudy
10:30 PM 77.0 °F - 73.4 °F 89% 29.83 in 0.6 mi WSW 11.5 mph - N/A Rain Heavy Rain
11:00 PM 77.0 °F - 73.4 °F 89% 29.83 in 3.1 mi West 23.0 mph - N/A Rain Light Rain
11:30 PM 78.8 °F - 73.4 °F 83% 29.83 in 4.3 mi West 15.0 mph - N/A   Mostly Cloudy